Погода в Семее

Казахстан     50°24′59″N   80°15′22″E
темп.,
°C
ветер,
м/с
пор.,
м/с
влажн.,
%
обл.,
%
осадки,
мм/ч
давл.,
гПа
погр.,
м
2 марта, вт
вт200:000юз81484100 0.1 1017465
03:00−1юз61194100 0.2 1017415
06:00−5сз4693100 0.4 1019151
09:00−5зюз2386100 0.0 1019148
12:00−3юз1288100 0.0 1019248
15:00−1ююв12100100 0.1 1016186
18:000ю2499100 1.0 1015186
21:00−1сз3498100 1.8 1015129
3 марта, ср
ср300:00−6сз359498 2.1 101693
03:00−9з3396100 0.3 101848
06:00−9зюз379699 0.4 1021206
09:00−10з61088100 0.1 1023476
12:00−10зюз678598 0.1 1024652
15:00−9зюз568299 0.0 1024741
18:00−12ю238687 0.0 102621
21:00−14ююв45870 0.0 102753
4 марта, чт
чт400:00−14ююв34850 0.0 102841
03:00−15ююв458114 0.0 102751
06:00−14юв568256 0.0 102885
09:00−12юв598021 0.0 1027214
12:00−7ююв687820 0.0 1027391
15:00−4ююв688031 0.0 1025460
18:00−6ююв598237 0.0 1024166
21:00−9юв6108458 0.0 1023151
5 марта, пт
пт500:00−10юв6118070 0.0 1022200
03:00−8ююв7148084 0.0 1019353
06:00−6ю7129692 1.7 1018401
09:00−5ю5796100 1.7 1018274
12:00−2зюз5798100 2.8 1021484
15:00−2з8118299 0.5 1026953
18:00−6юз448680 0.5 103062
21:00−9ю45830 0.0 103169
6 марта, сб
сб600:00−10ю48820 0.0 1031112
03:00−11ю4579100 0.0 102980
06:00−12ююв447877 0.0 102942
09:00−9ююв498039 0.0 1028283
12:00−4ююз697320 0.0 1026531
15:00−1ююз610790 0.0 1024675
18:00−4ю34870 0.0 102445
21:00−8ю33880 0.0 102522